Regional Weather Roundup
Issued by NWS

Home | Current Version | Previous Version | Text Only | Print | Product List | Glossary Off
Versions: 1 2 3 4 5 6 7 8 9 10 11 12 13 14 15 16 17 18 19 20 21 22 23 24 25 26 27 28 29 30 31 32 33 34 35 36 37 38 39 40 41 42 43 44 45 46 47 48 49 50

000
ASUS43 KMKX 021810
RWRWI

WISCONSIN REGIONAL WEATHER ROUNDUP
NATIONAL WEATHER SERVICE MILWAUKEE/SULLIVAN WI
1200 PM CST MON MAR 02 2015

NOTE: "FAIR" INDICATES FEW OR NO CLOUDS BELOW 12,000 FEET WITH NO
SIGNIFICANT WEATHER AND/OR OBSTRUCTIONS TO VISIBILITY.

WIZ001-002-006>008-014>016-023>028-021900-
NORTHWEST WISCONSIN

CITY           SKY/WX    TMP DP  RH WIND       PRES   REMARKS
SUPERIOR ARPT  SUNNY     25   9  51 W15       30.41F WCI  13
6HR MIN TEMP:   2; 6HR MAX TEMP:  25;

ASHLAND        SUNNY     24   7  48 MISG      30.42F
6HR MIN TEMP:   4; 6HR MAX TEMP:  24;

HAYWARD        SUNNY     21   3  45 SW9       30.40F WCI  11
6HR MIN TEMP:  -7; 6HR MAX TEMP:  21; 6HR PCP: TRACE;

SIREN          SUNNY     23   4  44 SW8       30.42F WCI  14
6HR MIN TEMP:  -5; 6HR MAX TEMP:  23;

CUMBERLAND     SUNNY     21   5  49 S8        30.42F WCI  12
RICE LAKE      SUNNY     21   6  51 S6        30.46F WCI  14
6HR MIN TEMP:  -3; 6HR MAX TEMP:  21;

CHETEK         SUNNY     22   6  49 SW3       30.45F
6HR MIN TEMP:   0; 6HR MAX TEMP:  22;

LADYSMITH      SUNNY     22   4  45 SW9       30.44F WCI  12
6HR MIN TEMP:  -3; 6HR MAX TEMP:  22;

EAU CLAIRE     SUNNY     21   6  52 VRB3      30.46F
6HR MIN TEMP:   0; 6HR MAX TEMP:  21;

MENOMONIE      FAIR      23   7  49 CALM      30.46F
6HR MIN TEMP:   3; 6HR MAX TEMP:  23;

NEW RICHMOND   SUNNY     22   8  53 S8        30.43F WCI  13
6HR MIN TEMP:  -1; 6HR MAX TEMP:  23;

OSCEOLA        SUNNY     24   8  50 SE7       30.46F WCI  16
6HR MIN TEMP:  -1; 6HR MAX TEMP:  24;

$$

WIZ003>005-009-010-017-018-021900-
NORTH CENTRAL WISCONSIN

CITY           SKY/WX    TMP DP  RH WIND       PRES   REMARKS
MANITOWISH WTR SUNNY     20   4  50 W7        30.36F WCI  11
6HR MIN TEMP:   2; 6HR MAX TEMP:  20;

ARBOR VITAE    SUNNY     22   4  47 CALM      30.36F
6HR MIN TEMP:   9; 6HR MAX TEMP:  22;

WOODRUFF       SUNNY     22   4  47 CALM      30.36F
6HR MIN TEMP:   9; 6HR MAX TEMP:  22;

RHINELANDER    SUNNY     21   5  50 W10       30.37F WCI  10
6HR MIN TEMP:   6; 6HR MAX TEMP:  21;

EAGLE RIVER    SUNNY     21   3  45 W5        30.36R WCI  15
6HR MIN TEMP:  11; 6HR MAX TEMP:  21;

LAND O LAKES   SUNNY     24   3  41 W9        30.35S WCI  14
6HR MIN TEMP:  14; 6HR MAX TEMP:  24;

PHILLIPS       SUNNY     21   3  46 SW7       30.38F WCI  12
6HR MIN TEMP:  -4; 6HR MAX TEMP:  21;

TOMAHAWK       SUNNY     22   3  44 W3        30.39F
6HR MIN TEMP:   3; 6HR MAX TEMP:  22;

MEDFORD        SUNNY     19   5  54 SW9       30.40F WCI   8
6HR MIN TEMP:   2; 6HR MAX TEMP:  19;

MERRILL        SUNNY     22   5  46 W5        30.39F WCI  16
6HR MIN TEMP:   3; 6HR MAX TEMP:  22;

$$

WIZ029-030-035-036-043>047-021900-
CENTRAL WISCONSIN

CITY           SKY/WX    TMP DP  RH WIND       PRES   REMARKS
WAUSAU         SUNNY     20   4  50 W6        30.41F WCI  12
6HR MIN TEMP:   7; 6HR MAX TEMP:  20;

MOSINEE        NOT AVBL
MARSHFIELD     SUNNY     20   6  55 SW7       30.44F WCI  11
6HR MIN TEMP:   1; 6HR MAX TEMP:  20;

STEVENS POINT  SUNNY     20   4  49 NW7       30.45S WCI  11
6HR MIN TEMP:   8; 6HR MAX TEMP:  20;

WAUPACA        SUNNY     28   4  36 W5        30.46F WCI  23
6HR MIN TEMP:  13; 6HR MAX TEMP:  28;

WAUTOMA        SUNNY     25   5  42 CALM      30.47F
6HR MIN TEMP:   8; 6HR MAX TEMP:  25;

WISC RAPIDS    SUNNY     22   2  42 VRB5      30.47F WCI  16
6HR MIN TEMP:   3; 6HR MAX TEMP:  23; 6HR PCP: TRACE;

CAMP DOUGLAS   PTSUNNY   23   7  50 SW2       30.47F
$$

WIZ011>013-019>022-031-037>040-048>050-021900-
NORTHEAST WISCONSIN

CITY           SKY/WX    TMP DP  RH WIND       PRES   REMARKS
ANTIGO         SUNNY     21   6  53 W3        30.38F
6HR MIN TEMP:  -2; 6HR MAX TEMP:  21;

SHAWANO        SUNNY     26   8  46 SW5       30.46S WCI  20
6HR MIN TEMP:  12; 6HR MAX TEMP:  26;

OCONTO         SUNNY     25   7  45 W5        30.45F WCI  19
6HR MIN TEMP:   6; 6HR MAX TEMP:  25;

STURGEON BAY   SUNNY     21   7  53 SW8       30.47F WCI  12
6HR MIN TEMP:  12; 6HR MAX TEMP:  21;

GREEN BAY      SUNNY     25   9  50 SW8       30.47F WCI  16
6HR MIN TEMP:  10; 6HR MAX TEMP:  25;

MANITOWOC      SUNNY     32  10  40 CALM      30.48F
6HR MIN TEMP:  13; 6HR MAX TEMP:  32;

APPLETON       MOSUNNY   25   7  46 SW7       30.47S WCI  17
CLINTONVILLE   SUNNY     25   9  50 SW7       30.45F WCI  17
OSHKOSH        SUNNY     24   9  52 MISG      30.47F
6HR MIN TEMP:  11; 6HR MAX TEMP:  24;

$$

WIZ032>034-041-042-053>061-021900-
SOUTHWEST WISCONSIN

CITY           SKY/WX    TMP DP  RH WIND       PRES   REMARKS
LA CROSSE      SUNNY     25   9  50 CALM      30.49F
6HR MIN TEMP:   5; 6HR MAX TEMP:  25;

SPARTA         SUNNY     25   6  46 NW5       30.48F WCI  19
6HR MIN TEMP:  -4; 6HR MAX TEMP:  25;

VIROQUA        SUNNY     21   7  55 CALM      30.45F
6HR MIN TEMP:   8; 6HR MAX TEMP:  22;

BOSCOBEL       SUNNY     25  12  58 SW7       30.50F WCI  17
6HR MIN TEMP:   0; 6HR MAX TEMP:  25;

PRAIRIE DU CHI SUNNY     24  10  56 CALM      30.50F
6HR MIN TEMP:   2; 6HR MAX TEMP:  24; 6HR PCP:  0.01;

PLATTEVILLE    MOSUNNY   22  13  68 CALM      30.49S
6HR MIN TEMP:   6; 6HR MAX TEMP:  22;

$$

WIZ056-057-062-063-064-067-068-021900-
SOUTH CENTRAL WISCONSIN

CITY           SKY/WX    TMP DP  RH WIND       PRES   REMARKS
REEDSBURG      SUNNY     22   8  54 SW3       30.48S
6HR MIN TEMP:   2; 6HR MAX TEMP:  22;

BARABOO/DELLS  SUNNY     24   7  50 SW6       30.46F WCI  16
6HR MIN TEMP:   6; 6HR MAX TEMP:  24;

LONE ROCK      SUNNY     24   7  48 CALM      30.49F
6HR MIN TEMP:  -3; 6HR MAX TEMP:  24;

MINERAL POINT  SUNNY     25  12  58 CALM      30.47S
MADISON        PTSUNNY   24   9  52 VRB7      30.49F WCI  16
6HR MIN TEMP:   4; 6HR MAX TEMP:  25;

MIDDLETON      SUNNY     25   9  49 CALM      30.49F
6HR MIN TEMP:   6; 6HR MAX TEMP:  27;

WATERTOWN      SUNNY     24  10  54 CALM      30.48F
6HR MIN TEMP:   4; 6HR MAX TEMP:  25;

MONROE         SUNNY     25  14  63 CALM      30.47F
JANESVILLE     SUNNY     25   9  50 CALM      30.50F
$$

WIZ051-052-058>065-066-070>072-021900-
SOUTHEAST WISCONSIN

CITY           SKY/WX    TMP DP  RH WIND       PRES   REMARKS
MILWAUKEE      MOSUNNY   27   8  44 SW3       30.49F
6HR MIN TEMP:  16; 6HR MAX TEMP:  28;

WAUKESHA       SUNNY     19   9  63 W5        30.49F WCI  13
MILWAUKEE/TIMM SUNNY     27   7  43 CALM      30.49F
RACINE         SUNNY     25   8  48 W5        30.51S WCI  19
6HR MIN TEMP:  12; 6HR MAX TEMP:  26;

BURLINGTON     SUNNY     24   9  51 SW3       30.50F
6HR MIN TEMP:   4; 6HR MAX TEMP:  25;

KENOSHA        SUNNY     24  10  55 NW6       30.50S WCI  17
6HR MIN TEMP:   8; 6HR MAX TEMP:  24;

FOND DU LAC    SUNNY     24   8  50 NW6       30.47F WCI  17
6HR MIN TEMP:   9; 6HR MAX TEMP:  24;

SHEBOYGAN      SUNNY     25   8  48 CALM      30.47F
6HR MIN TEMP:  13; 6HR MAX TEMP:  25;

WEST BEND      SUNNY     25   9  50 W3        30.47F
JUNEAU         SUNNY     23   8  52 W6        30.49S WCI  16
6HR MIN TEMP:   8; 6HR MAX TEMP:  24;

$$

LSZ147-162-021900-
LAKE SUPERIOR

STATION/POSITION TIME  TEMP    WIND        PRES    WAVE
                       AIR SEA DIR/SP/G            HT/PER
                 (UTC) (F)     (DEG/KT/KT) (MB)    (FT/S)
DEVILS ISLAND    1800   20     240/ 13/ 15 1031.0F
PORT WING        1740   21     270/  7/ 13 1030.1F
SAXON HARBOR     1700   23     250/  5/ 11 1030.5
$$

LMZ867-665-643>646-021900-
LAKE MICHIGAN

STATION/POSITION TIME  TEMP    WIND        PRES    WAVE
                       AIR SEA DIR/SP/G            HT/PER


USA.gov is the U.S. government's official web portal to all federal, state and local government web resources and services.